Home > Weather > Mata-Utu > Past weeks

Flag for Wallis and Futuna Weather for the Past 2 Weeks in Mata-Utu, Wallis and Futuna

Now
90 °F

Scattered clouds.


Feels Like: 105 °F
Forecast: 82 / 88 °F
Wind: 17 mph from Northeast

Location: Faleolo Intl / Apia

Current Time: Feb 13, 2016 at 3:12:31 PM

Latest Report: Feb 13, 2016 at 2:00 PM


Visibility: N/A

Pressure: 29.74 "Hg

Humidity: 71%

Dew point: 79 °F

Location of Mata-UtuLocation

Historic Weather in Mata-Utu — Graph

°F

Mata-Utu Temperature Yesterday

Maximum temperature yesterday: 93 °F (at 3:00 PM)
Minimum temperature yesterday: 63 °F (at 11:00 PM)
Average temperature yesterday: 84 °F

High & Low Weather Summary for the Past Weeks

 TemperatureHumidityPressure
High93 °F (Feb 11, 2:00 PM)100% (Jan 30, 12:00 AM)29.95 "Hg (Jan 30, 12:00 AM)
Low63 °F (Feb 12, 11:00 PM)56% (Feb 6, 11:00 AM)29.65 "Hg (Feb 6, 2:00 PM)
Average83 °F81%29.80 "Hg
* Reported Jan 29 1:00 PM — Feb 13 1:00 PM, Mata-Utu, Weather by CustomWeather, © 2016

Note: Actual official high and low records may vary slightly from our data, if they occured in-between our weather recording intervals... More about our weather records

Advertising

Mata-Utu Weather History for the Previous 24 Hours

 ConditionsComfort  
Time TempWeatherWind HumidityBarometerVisibility
1:00 PM
Sat, Feb 13
86 °FScattered clouds.16 mph79%29.74 "HgN/A
12:00 PM91 °FScattered clouds.17 mph67%29.77 "HgN/A
11:00 AM91 °FScattered clouds.17 mph63%29.77 "HgN/A
10:00 AM91 °FScattered clouds.18 mph63%29.77 "HgN/A
9:00 AM86 °FScattered clouds.6 mph75%29.80 "HgN/A
8:00 AM84 °FScattered clouds.3 mph79%29.80 "HgN/A
7:00 AM79 °FPassing clouds.No wind94%29.80 "HgN/A
6:00 AM75 °FScattered clouds.No wind100%29.80 "HgN/A
5:00 AM79 °FPassing clouds.5 mph84%29.77 "HgN/A
4:00 AM79 °FPassing clouds.5 mph89%29.74 "HgN/A
2:00 AM79 °FPassing clouds.No wind89%29.74 "HgN/A
1:00 AM79 °FPassing clouds.3 mph89%29.77 "HgN/A
12:00 AM81 °FPassing clouds.3 mph89%29.80 "HgN/A
11:00 PM
Fri, Feb 12
63 °FPassing clouds.3 mph100%29.83 "HgN/A
10:00 PM81 °FPassing clouds.No wind89%29.83 "HgN/A
9:00 PM79 °FPassing clouds.No wind94%29.83 "HgN/A
8:00 PM81 °FPassing clouds.No wind89%29.80 "HgN/A
7:00 PM82 °FPassing clouds.No wind94%29.80 "HgN/A
6:00 PM86 °FPassing clouds.8 mph79%29.77 "HgN/A
5:00 PM86 °FBroken clouds.8 mph79%29.77 "HgN/A
4:00 PM91 °FBroken clouds.13 mph63%29.74 "HgN/A
3:00 PM93 °FBroken clouds.14 mph56%29.74 "HgN/A
Weather by CustomWeather, © 2016

See weather overviewHow to use our weather pages